Regional Weather Roundup
Issued by NWS

Home | Current Version | Previous Version | Graphics & Text | Print | Product List | Glossary On
Versions: 1 2 3 4 5 6 7 8 9 10 11 12 13 14 15 16 17 18 19 20 21 22 23 24 25 26 27 28 29 30 31 32 33 34 35 36 37 38 39 40 41 42 43 44 45 46 47 48 49 50
000
ASUS43 KOAX 280110
RWRNE

WEATHER ROUNDUP FOR NEBRASKA
NATIONAL WEATHER SERVICE OMAHA NE
700 PM CST THU NOV 27 2014

NOTES: SATELLITE DATA IS BEING USED TO AUGMENT CLOUD COVER ABOVE
       12000 FEET.
       "FAIR" INDICATES FEW OR NO CLOUDS BELOW 12,000 FEET WITH NO
       SIGNIFICANT WEATHER AND/OR OBSTRUCTIONS TO VISIBILITY.

  * THESE STATIONS DO NOT REPORT WEATHER SUCH AS RAIN...SNOW OR FOG.

NEZ001>004-019>022-054>056-280200-
NEBRASKA PANHANDLE

CITY           SKY/WX    TMP DP  RH WIND       PRES   REMARKS
SCOTTSBLUFF    CLEAR     43  30  60 NW9       29.99R
ALLIANCE       CLEAR     36  25  64 W10       29.96S WCI  28
CHADRON        CLEAR    N/A N/A N/A SW6       29.94R
KIMBALL        CLEAR     45  28  50 W14       30.02F
SIDNEY         CLEAR     39  28  64 W6        30.04S WCI  35
$$

NEZ057>060-069>072-079>082-280200-
SOUTHWEST NEBRASKA

CITY           SKY/WX    TMP DP  RH WIND       PRES   REMARKS
NORTH PLATTE   CLEAR     30  21  69 E6        30.01F WCI  24
IMPERIAL       PTCLDY    40  26  57 CALM      30.01F
LEXINGTON      CLEAR     38  22  52 SE8       30.05S WCI  32
MCCOOK         PTCLDY    46  26  45 S10       30.02F
OGALLALA       CLEAR     35  32  90 W3        30.00S
$$

NEZ005>010-023>029-035>040-094-280200-
NORTH CENTRAL NEBRASKA

CITY           SKY/WX    TMP DP  RH WIND       PRES   REMARKS
VALENTINE      CLEAR     39  25  57 SW6       29.93F WCI  35
AINSWORTH      CLEAR     36  22  58 S15       29.96F WCI  26
BROKEN BOW     PTCLDY    32  20  61 SE7       30.05S WCI  26
O`NEILL        CLEAR     30  19  63 S15G21    30.06S WCI  19
ORD            PTCLDY    31  18  58 SE10      30.07F WCI  22
THEDFORD       CLEAR     43  25  50 S13       29.98S
$$

NEZ041-046>049-061>064-073>077-083>087-280200-
SOUTH CENTRAL NEBRASKA

CITY           SKY/WX    TMP DP  RH WIND       PRES   REMARKS
GRAND ISLAND   PTCLDY    32  17  54 SE13G20   30.13F WCI  22
AURORA         PTCLDY    30  18  60 SE9       30.13F WCI  22
HASTINGS       CLEAR     32  16  51 SE14      30.10F WCI  22
HEBRON         CLEAR     30  15  53 SE9       30.18F WCI  22
HOLDREGE       CLEAR     36  20  53 S13       30.05F WCI  27
KEARNEY *      CLEAR     30  18  59 E8        30.09F WCI  23
YORK           CLEAR     30  18  59 S12       30.15F WCI  21
$$

NEZ011>018-030>034-042>045-280200-
NORTHEAST NEBRASKA

CITY           SKY/WX    TMP DP  RH WIND       PRES   REMARKS
NORFOLK        PTCLDY    23  15  71 SE12      30.17F WCI  12
ALBION         CLEAR     28  16  62 SE9       30.13F WCI  19
BLAIR          PTCLDY    23  13  67 SE10      30.26F WCI  12
COLUMBUS *     CLEAR     25  12  58 SE12      30.19F WCI  14
FREMONT        PTCLDY    24  14  65 E12       30.25F WCI  13
TEKAMAH        CLEAR     20   9  62 SE12      30.29F WCI   8
WAYNE          PTCLDY    19  10  67 SE10G16   30.21F WCI   8
$$

NEZ050>053-065>068-078-088>093-280200-
SOUTHEAST NEBRASKA

CITY           SKY/WX    TMP DP  RH WIND       PRES   REMARKS
LINCOLN        CLEAR     28  13  53 SE12      30.25F WCI  18
OMAHA EPPLEY   CLOUDY    23  12  62 SE12      30.31F WCI  12
BEATRICE       CLEAR     32  19  58 SE7       30.22F WCI  25
FALLS CITY     PTCLDY    27  18  69 SE10      30.30F WCI  17
NEBRASKA CITY  PTCLDY    25  13  60 SE8       30.28F WCI  16
PLATTSMOUTH    PTCLDY    24  14  65 SE12      30.27F WCI  13
$$

NEZ044-045-051>053-067-280200-
OMAHA AREA

CITY           SKY/WX    TMP DP  RH WIND       PRES   REMARKS
OMAHA EPPLEY   CLOUDY    23  12  62 SE12      30.31F WCI  12
BLAIR          PTCLDY    23  13  67 SE10      30.26F WCI  12
FREMONT        PTCLDY    24  14  65 E12       30.25F WCI  13
MILLARD        PTCLDY    24  14  65 SE7       30.28F WCI  16
OFFUTT AFB     CLOUDY    24  14  67 SE10      30.29F WCI  13
PLATTSMOUTH    PTCLDY    24  14  65 SE12      30.27F WCI  13
WAHOO          FAIR      23  15  71 SE10      30.24F WCI  12
$$



USA.gov is the U.S. government's official web portal to all federal, state and local government web resources and services.